Time,TemperatureF,DewpointF,PressureIn,WindDirection,WindDirectionDegrees,WindSpeedMPH,WindSpeedGustMPH,Humidity,HourlyPrecipIn,Conditions,Clouds,dailyrainin,SoftwareType,DateUTC
2013-05-02 00:01:00,49.6,41.7,30.40,SE,129,0.0,0.0,74,0.00,CLR,CLR,0.00,WeatherDisplay:10.36,2013-05-02 04:01:00,
2013-05-02 00:02:00,49.6,41.7,30.40,SE,129,0.0,0.0,74,0.00,CLR,CLR,0.00,WeatherDisplay:10.36,2013-05-02 04:02:00,
2013-05-02 00:03:00,49.6,41.7,30.40,SE,129,0.0,0.0,74,0.00,CLR,CLR,0.00,WeatherDisplay:10.36,2013-05-02 04:03:00,
2013-05-02 00:09:00,49.5,41.6,30.40,SE,129,0.0,0.0,74,0.00,CLR,CLR,0.00,WeatherDisplay:10.36,2013-05-02 04:09:00,
2013-05-02 00:14:00,49.5,41.9,30.40,SE,129,0.0,0.0,75,0.00,CLR,CLR,0.00,WeatherDisplay:10.36,2013-05-02 04:14:00,
2013-05-02 00:19:00,49.4,41.8,30.40,SE,129,0.0,0.0,75,0.00,CLR,CLR,0.00,WeatherDisplay:10.36,2013-05-02 04:19:00,
2013-05-02 00:24:00,49.2,42.0,30.40,SE,129,0.0,0.0,76,0.00,CLR,CLR,0.00,WeatherDisplay:10.36,2013-05-02 04:24:00,
2013-05-02 00:29:00,49.1,41.9,30.40,SE,129,0.0,0.0,76,0.00,CLR,CLR,0.00,WeatherDisplay:10.36,2013-05-02 04:29:00,
2013-05-02 00:34:00,48.9,41.7,30.40,SE,129,0.0,0.0,76,0.00,CLR,CLR,0.00,WeatherDisplay:10.36,2013-05-02 04:34:00,
2013-05-02 00:39:00,48.6,41.7,30.40,SE,129,0.0,0.0,77,0.00,CLR,CLR,0.00,WeatherDisplay:10.36,2013-05-02 04:39:00,
2013-05-02 00:44:00,48.2,41.7,30.40,SE,129,0.0,0.0,78,0.00,CLR,CLR,0.00,WeatherDisplay:10.36,2013-05-02 04:44:00,
2013-05-02 00:49:00,47.7,41.5,30.39,SE,129,0.0,0.0,79,0.00,CLR,CLR,0.00,WeatherDisplay:10.36,2013-05-02 04:49:00,
2013-05-02 00:55:00,47.4,41.2,30.39,SE,129,0.0,0.0,79,0.00,CLR,CLR,0.00,WeatherDisplay:10.36,2013-05-02 04:55:00,
2013-05-02 01:00:00,47.3,41.4,30.39,SE,129,0.0,0.0,80,0.00,CLR,CLR,0.00,WeatherDisplay:10.36,2013-05-02 05:00:00,
2013-05-02 01:05:00,47.1,41.6,30.39,SE,129,0.0,0.0,81,0.00,CLR,CLR,0.00,WeatherDisplay:10.36,2013-05-02 05:05:00,
2013-05-02 01:10:00,47.1,41.9,30.39,SE,129,0.0,0.0,82,0.00,CLR,CLR,0.00,WeatherDisplay:10.36,2013-05-02 05:10:00,
2013-05-02 01:15:00,47.1,41.9,30.39,SE,129,0.0,0.0,82,0.00,CLR,CLR,0.00,WeatherDisplay:10.36,2013-05-02 05:15:00,
2013-05-02 01:20:00,47.0,42.1,30.39,SE,129,0.0,0.0,83,0.00,CLR,CLR,0.00,WeatherDisplay:10.36,2013-05-02 05:20:00,
2013-05-02 01:25:00,46.7,41.8,30.39,SE,129,0.0,0.0,83,0.00,CLR,CLR,0.00,WeatherDisplay:10.36,2013-05-02 05:25:00,
2013-05-02 01:30:00,46.5,41.9,30.38,SE,129,0.0,0.0,84,0.00,CLR,CLR,0.00,WeatherDisplay:10.36,2013-05-02 05:30:00,
2013-05-02 01:36:00,46.5,41.9,30.38,SE,129,0.0,0.0,84,0.00,CLR,CLR,0.00,WeatherDisplay:10.36,2013-05-02 05:36:00,
2013-05-02 01:41:00,46.4,41.8,30.37,SE,129,0.0,0.0,84,0.00,CLR,CLR,0.00,WeatherDisplay:10.36,2013-05-02 05:41:00,
2013-05-02 01:46:00,46.4,41.8,30.37,SE,129,0.0,0.0,84,0.00,CLR,CLR,0.00,WeatherDisplay:10.36,2013-05-02 05:46:00,
2013-05-02 01:51:00,46.4,41.8,30.37,SE,129,0.0,0.0,84,0.00,CLR,CLR,0.00,WeatherDisplay:10.36,2013-05-02 05:51:00,
2013-05-02 01:56:00,46.2,41.6,30.37,SE,129,0.0,0.0,84,0.00,CLR,CLR,0.00,WeatherDisplay:10.36,2013-05-02 05:56:00,
2013-05-02 02:01:00,46.1,41.5,30.37,SE,129,0.0,0.0,84,0.00,CLR,CLR,0.00,WeatherDisplay:10.36,2013-05-02 06:01:00,
2013-05-02 02:06:00,46.0,41.7,30.37,SE,129,0.0,0.0,85,0.00,CLR,CLR,0.00,WeatherDisplay:10.36,2013-05-02 06:06:00,
2013-05-02 02:11:00,45.7,41.4,30.37,SE,129,0.0,0.0,85,0.00,CLR,CLR,0.00,WeatherDisplay:10.36,2013-05-02 06:11:00,
2013-05-02 02:16:00,45.4,41.2,30.37,SE,129,0.0,0.0,85,0.00,CLR,CLR,0.00,WeatherDisplay:10.36,2013-05-02 06:16:00,
2013-05-02 02:21:00,45.2,41.0,30.36,SE,129,0.0,0.0,85,0.00,CLR,CLR,0.00,WeatherDisplay:10.36,2013-05-02 06:21:00,
2013-05-02 02:26:00,45.2,41.3,30.36,SE,129,0.0,0.0,86,0.00,CLR,CLR,0.00,WeatherDisplay:10.36,2013-05-02 06:26:00,
2013-05-02 02:32:00,45.2,41.3,30.35,SE,129,0.0,0.0,86,0.00,CLR,CLR,0.00,WeatherDisplay:10.36,2013-05-02 06:32:00,
2013-05-02 02:37:00,45.2,41.3,30.35,SE,129,0.0,0.0,86,0.00,CLR,CLR,0.00,WeatherDisplay:10.36,2013-05-02 06:37:00,
2013-05-02 02:42:00,45.1,41.2,30.35,SE,129,0.0,0.0,86,0.00,CLR,CLR,0.00,WeatherDisplay:10.36,2013-05-02 06:42:00,
2013-05-02 02:47:00,45.1,41.2,30.35,SE,129,0.0,0.0,86,0.00,CLR,CLR,0.00,WeatherDisplay:10.36,2013-05-02 06:47:00,
2013-05-02 02:52:00,44.8,40.9,30.35,SE,129,0.0,0.0,86,0.00,CLR,CLR,0.00,WeatherDisplay:10.36,2013-05-02 06:52:00,
2013-05-02 02:57:00,44.6,41.0,30.35,SE,129,0.0,0.0,87,0.00,CLR,CLR,0.00,WeatherDisplay:10.36,2013-05-02 06:57:00,
2013-05-02 03:02:00,44.6,41.0,30.35,SE,129,0.0,0.0,87,0.00,CLR,CLR,0.00,WeatherDisplay:10.36,2013-05-02 07:02:00,
2013-05-02 03:07:00,44.6,41.0,30.35,SE,129,0.0,0.0,87,0.00,CLR,CLR,0.00,WeatherDisplay:10.36,2013-05-02 07:07:00,
2013-05-02 03:12:00,44.6,41.0,30.35,SE,129,0.0,0.0,87,0.00,CLR,CLR,0.00,WeatherDisplay:10.36,2013-05-02 07:12:00,
2013-05-02 03:17:00,44.5,40.9,30.35,SE,129,0.0,0.0,87,0.00,CLR,CLR,0.00,WeatherDisplay:10.36,2013-05-02 07:17:00,
2013-05-02 03:23:00,44.3,40.7,30.35,SE,129,0.0,0.0,87,0.00,CLR,CLR,0.00,WeatherDisplay:10.36,2013-05-02 07:23:00,
2013-05-02 03:28:00,44.2,40.9,30.35,SE,129,0.0,0.0,88,0.00,CLR,CLR,0.00,WeatherDisplay:10.36,2013-05-02 07:28:00,
2013-05-02 03:33:00,44.2,40.9,30.35,SE,129,0.0,0.0,88,0.00,CLR,CLR,0.00,WeatherDisplay:10.36,2013-05-02 07:33:00,
2013-05-02 03:38:00,44.2,40.9,30.34,SE,129,0.0,0.0,88,0.00,CLR,CLR,0.00,WeatherDisplay:10.36,2013-05-02 07:38:00,
2013-05-02 03:44:00,44.2,40.9,30.35,SE,129,0.0,0.0,88,0.00,CLR,CLR,0.00,WeatherDisplay:10.36,2013-05-02 07:44:00,
2013-05-02 03:49:00,44.2,40.9,30.35,SE,129,0.0,0.0,88,0.00,CLR,CLR,0.00,WeatherDisplay:10.36,2013-05-02 07:49:00,
2013-05-02 03:54:00,44.2,41.2,30.35,SE,129,0.0,0.0,89,0.00,CLR,CLR,0.00,WeatherDisplay:10.36,2013-05-02 07:54:00,
2013-05-02 03:59:00,44.2,40.9,30.35,SE,129,0.0,0.0,88,0.00,CLR,CLR,0.00,WeatherDisplay:10.36,2013-05-02 07:59:00,
2013-05-02 04:04:00,44.2,41.2,30.35,SE,129,0.0,0.0,89,0.00,CLR,CLR,0.00,WeatherDisplay:10.36,2013-05-02 08:04:00,
2013-05-02 04:09:00,44.3,41.3,30.35,SE,129,0.0,0.0,89,0.00,CLR,CLR,0.00,WeatherDisplay:10.36,2013-05-02 08:09:00,
2013-05-02 04:14:00,44.2,41.2,30.35,SE,129,0.0,0.0,89,0.00,CLR,CLR,0.00,WeatherDisplay:10.36,2013-05-02 08:14:00,
2013-05-02 04:20:00,44.1,41.1,30.35,SE,129,0.0,0.0,89,0.00,CLR,CLR,0.00,WeatherDisplay:10.36,2013-05-02 08:20:00,
2013-05-02 04:25:00,43.9,40.9,30.35,SE,129,0.0,0.0,89,0.00,CLR,CLR,0.00,WeatherDisplay:10.36,2013-05-02 08:25:00,
2013-05-02 04:30:00,43.9,40.9,30.35,SE,129,0.0,0.0,89,0.00,CLR,CLR,0.00,WeatherDisplay:10.36,2013-05-02 08:30:00,
2013-05-02 04:35:00,43.9,40.9,30.35,SE,129,0.0,0.0,89,0.00,CLR,CLR,0.00,WeatherDisplay:10.36,2013-05-02 08:35:00,
2013-05-02 04:40:00,44.1,41.4,30.35,SE,129,0.0,0.0,90,0.00,CLR,CLR,0.00,WeatherDisplay:10.36,2013-05-02 08:40:00,
2013-05-02 04:45:00,44.1,41.4,30.35,SE,129,0.0,0.0,90,0.00,CLR,CLR,0.00,WeatherDisplay:10.36,2013-05-02 08:45:00,
2013-05-02 04:50:00,44.2,41.5,30.34,SE,129,0.0,0.0,90,0.00,CLR,CLR,0.00,WeatherDisplay:10.36,2013-05-02 08:50:00,
2013-05-02 04:55:00,44.2,41.5,30.34,SE,129,0.0,0.0,90,0.00,CLR,CLR,0.00,WeatherDisplay:10.36,2013-05-02 08:55:00,
2013-05-02 05:00:00,44.2,41.5,30.34,SE,129,0.0,0.0,90,0.00,CLR,CLR,0.00,WeatherDisplay:10.36,2013-05-02 09:00:00,
2013-05-02 05:06:00,44.2,41.5,30.35,SE,129,0.0,0.0,90,0.00,CLR,CLR,0.00,WeatherDisplay:10.36,2013-05-02 09:06:00,
2013-05-02 05:11:00,44.2,41.5,30.35,SE,129,0.0,0.0,90,0.00,CLR,CLR,0.00,WeatherDisplay:10.36,2013-05-02 09:11:00,
2013-05-02 05:16:00,44.2,41.5,30.35,SE,129,0.0,0.0,90,0.00,CLR,CLR,0.00,WeatherDisplay:10.36,2013-05-02 09:16:00,
2013-05-02 05:21:00,44.2,41.5,30.35,SE,129,0.0,0.0,90,0.00,CLR,CLR,0.00,WeatherDisplay:10.36,2013-05-02 09:21:00,
2013-05-02 05:26:00,44.1,41.1,30.35,SE,129,0.0,0.0,89,0.00,CLR,CLR,0.00,WeatherDisplay:10.36,2013-05-02 09:26:00,
2013-05-02 05:31:00,44.1,41.1,30.35,SE,129,0.0,0.0,89,0.00,CLR,CLR,0.00,WeatherDisplay:10.36,2013-05-02 09:31:00,
2013-05-02 05:36:00,43.9,40.9,30.35,SE,129,0.0,0.0,89,0.00,CLR,CLR,0.00,WeatherDisplay:10.36,2013-05-02 09:36:00,
2013-05-02 05:41:00,43.8,40.8,30.35,SE,129,0.0,0.0,89,0.00,CLR,CLR,0.00,WeatherDisplay:10.36,2013-05-02 09:41:00,
2013-05-02 05:47:00,43.8,40.8,30.35,SE,129,0.0,0.0,89,0.00,CLR,CLR,0.00,WeatherDisplay:10.36,2013-05-02 09:47:00,
2013-05-02 05:52:00,43.6,40.6,30.35,SE,129,0.0,0.0,89,0.00,CLR,CLR,0.00,WeatherDisplay:10.36,2013-05-02 09:52:00,
2013-05-02 05:57:00,43.5,40.5,30.35,SE,129,0.0,0.0,89,0.00,CLR,CLR,0.00,WeatherDisplay:10.36,2013-05-02 09:57:00,
2013-05-02 06:02:00,43.3,40.3,30.35,SE,129,0.0,0.0,89,0.00,CLR,CLR,0.00,WeatherDisplay:10.36,2013-05-02 10:02:00,
2013-05-02 06:07:00,43.2,40.2,30.35,SE,129,0.0,0.0,89,0.00,CLR,CLR,0.00,WeatherDisplay:10.36,2013-05-02 10:07:00,
2013-05-02 06:12:00,43.2,40.5,30.35,SE,129,0.0,0.0,90,0.00,CLR,CLR,0.00,WeatherDisplay:10.36,2013-05-02 10:12:00,
2013-05-02 06:17:00,43.3,40.6,30.35,SE,129,0.0,0.0,90,0.00,CLR,CLR,0.00,WeatherDisplay:10.36,2013-05-02 10:17:00,
2013-05-02 06:23:00,43.3,40.6,30.35,SE,129,0.0,0.0,90,0.00,CLR,CLR,0.00,WeatherDisplay:10.36,2013-05-02 10:23:00,
2013-05-02 06:28:00,43.5,40.8,30.35,SE,129,0.0,0.0,90,0.00,CLR,CLR,0.00,WeatherDisplay:10.36,2013-05-02 10:28:00,
2013-05-02 06:33:00,43.6,40.9,30.35,SE,129,0.0,0.0,90,0.00,CLR,CLR,0.00,WeatherDisplay:10.36,2013-05-02 10:33:00,
2013-05-02 06:38:00,43.8,41.1,30.35,SE,129,0.0,0.0,90,0.00,CLR,CLR,0.00,WeatherDisplay:10.36,2013-05-02 10:38:00,
2013-05-02 06:43:00,43.9,41.2,30.35,SE,129,0.0,0.0,90,0.00,CLR,CLR,0.00,WeatherDisplay:10.36,2013-05-02 10:43:00,
2013-05-02 06:48:00,43.9,41.2,30.36,SE,129,0.0,0.0,90,0.00,CLR,CLR,0.00,WeatherDisplay:10.36,2013-05-02 10:48:00,
2013-05-02 06:53:00,43.8,41.1,30.36,SE,129,0.0,0.0,90,0.00,CLR,CLR,0.00,WeatherDisplay:10.36,2013-05-02 10:53:00,
2013-05-02 06:58:00,43.9,41.2,30.36,SE,129,0.0,0.0,90,0.00,CLR,CLR,0.00,WeatherDisplay:10.36,2013-05-02 10:58:00,
2013-05-02 07:03:00,44.1,41.4,30.37,SE,129,0.0,0.0,90,0.00,CLR,CLR,0.00,WeatherDisplay:10.36,2013-05-02 11:03:00,
2013-05-02 07:09:00,44.2,41.5,30.37,SE,129,0.0,0.0,90,0.00,CLR,CLR,0.00,WeatherDisplay:10.36,2013-05-02 11:09:00,
2013-05-02 07:14:00,44.3,41.6,30.37,SE,129,0.0,0.0,90,0.00,CLR,CLR,0.00,WeatherDisplay:10.36,2013-05-02 11:14:00,
2013-05-02 07:19:00,44.6,41.8,30.37,SE,129,0.0,0.0,90,0.00,CLR,CLR,0.00,WeatherDisplay:10.36,2013-05-02 11:19:00,
2013-05-02 07:24:00,44.8,42.0,30.37,SE,129,0.0,0.0,90,0.00,CLR,CLR,0.00,WeatherDisplay:10.36,2013-05-02 11:24:00,
2013-05-02 07:29:00,45.1,42.3,30.37,SE,129,0.0,0.0,90,0.00,CLR,CLR,0.00,WeatherDisplay:10.36,2013-05-02 11:29:00,
2013-05-02 07:35:00,45.4,42.6,30.37,SE,129,0.0,0.0,90,0.00,CLR,CLR,0.00,WeatherDisplay:10.36,2013-05-02 11:35:00,
2013-05-02 07:40:00,45.7,42.9,30.37,SE,129,0.0,0.0,90,0.00,CLR,CLR,0.00,WeatherDisplay:10.36,2013-05-02 11:40:00,
2013-05-02 07:45:00,46.0,43.2,30.37,SE,129,0.0,0.0,90,0.00,CLR,CLR,0.00,WeatherDisplay:10.36,2013-05-02 11:45:00,
2013-05-02 07:50:00,46.2,43.5,30.38,SE,129,0.0,0.0,90,0.00,CLR,CLR,0.00,WeatherDisplay:10.36,2013-05-02 11:50:00,
2013-05-02 07:55:00,46.7,43.6,30.38,SE,129,0.0,0.0,89,0.00,CLR,CLR,0.00,WeatherDisplay:10.36,2013-05-02 11:55:00,
2013-05-02 08:00:00,47.0,44.0,30.38,SE,129,0.0,0.0,89,0.00,CLR,CLR,0.00,WeatherDisplay:10.36,2013-05-02 12:00:00,
2013-05-02 08:05:00,47.6,44.2,30.38,SE,129,0.0,0.0,88,0.00,CLR,CLR,0.00,WeatherDisplay:10.36,2013-05-02 12:05:00,
2013-05-02 08:10:00,48.0,44.0,30.38,SE,129,0.0,0.0,86,0.00,CLR,CLR,0.00,WeatherDisplay:10.36,2013-05-02 12:10:00,
2013-05-02 08:15:00,48.5,44.2,30.38,SE,129,0.0,0.0,85,0.00,CLR,CLR,0.00,WeatherDisplay:10.36,2013-05-02 12:15:00,
2013-05-02 08:20:00,49.0,44.0,30.38,SE,129,0.0,0.0,83,0.00,CLR,CLR,0.00,WeatherDisplay:10.36,2013-05-02 12:20:00,
2013-05-02 08:25:00,49.6,44.3,30.39,SE,129,0.0,0.0,82,0.00,CLR,CLR,0.00,WeatherDisplay:10.36,2013-05-02 12:25:00,
2013-05-02 08:30:00,50.1,44.2,30.39,SE,129,0.0,0.0,80,0.00,CLR,CLR,0.00,WeatherDisplay:10.36,2013-05-02 12:30:00,
2013-05-02 08:35:00,50.5,43.9,30.39,SE,129,0.0,0.0,78,0.00,CLR,CLR,0.00,WeatherDisplay:10.36,2013-05-02 12:35:00,
2013-05-02 08:40:00,51.1,43.8,30.39,SE,129,0.0,0.0,76,0.00,CLR,CLR,0.00,WeatherDisplay:10.36,2013-05-02 12:40:00,
2013-05-02 08:45:00,51.7,44.0,30.39,SE,129,0.0,0.0,75,0.00,CLR,CLR,0.00,WeatherDisplay:10.36,2013-05-02 12:45:00,
2013-05-02 08:50:00,52.2,43.8,30.39,SE,129,0.0,0.0,73,0.00,CLR,CLR,0.00,WeatherDisplay:10.36,2013-05-02 12:50:00,
2013-05-02 08:56:00,52.6,43.8,30.39,SE,129,0.0,0.0,72,0.00,CLR,CLR,0.00,WeatherDisplay:10.36,2013-05-02 12:56:00,
2013-05-02 09:01:00,53.2,43.7,30.39,SE,129,0.0,0.0,70,0.00,CLR,CLR,0.00,WeatherDisplay:10.36,2013-05-02 13:01:00,
2013-05-02 09:06:00,53.6,43.3,30.39,SE,129,0.0,0.0,68,0.00,CLR,CLR,0.00,WeatherDisplay:10.36,2013-05-02 13:06:00,
2013-05-02 09:11:00,54.1,43.0,30.39,SE,129,0.0,0.0,66,0.00,CLR,CLR,0.00,WeatherDisplay:10.36,2013-05-02 13:11:00,
2013-05-02 09:16:00,54.5,42.6,30.39,SE,129,0.0,0.0,64,0.00,CLR,CLR,0.00,WeatherDisplay:10.36,2013-05-02 13:16:00,
2013-05-02 09:21:00,55.3,42.1,30.38,SE,129,0.0,0.0,61,0.00,CLR,CLR,0.00,WeatherDisplay:10.36,2013-05-02 13:21:00,
2013-05-02 09:27:00,56.2,41.6,30.38,SE,129,0.0,0.0,58,0.00,CLR,CLR,0.00,WeatherDisplay:10.36,2013-05-02 13:27:00,
2013-05-02 09:32:00,56.6,40.6,30.38,SE,129,0.0,0.0,55,0.00,CLR,CLR,0.00,WeatherDisplay:10.36,2013-05-02 13:32:00,
2013-05-02 09:37:00,57.0,40.0,30.38,SE,129,0.0,0.0,53,0.00,CLR,CLR,0.00,WeatherDisplay:10.36,2013-05-02 13:37:00,
2013-05-02 09:42:00,57.5,39.5,30.38,SE,129,0.0,0.0,51,0.00,CLR,CLR,0.00,WeatherDisplay:10.36,2013-05-02 13:42:00,
2013-05-02 09:47:00,57.8,39.8,30.38,SE,129,0.0,0.0,51,0.00,CLR,CLR,0.00,WeatherDisplay:10.36,2013-05-02 13:47:00,
2013-05-02 09:52:00,58.3,39.7,30.38,SE,129,0.0,0.0,50,0.00,CLR,CLR,0.00,WeatherDisplay:10.36,2013-05-02 13:52:00,
2013-05-02 09:58:00,58.7,38.0,30.38,SE,129,0.0,0.0,46,0.00,CLR,CLR,0.00,WeatherDisplay:10.36,2013-05-02 13:58:00,
2013-05-02 10:03:00,59.3,37.9,30.38,East,101,0.0,0.0,45,0.00,CLR,CLR,0.00,WeatherDisplay:10.36,2013-05-02 14:03:00,
2013-05-02 10:08:00,59.8,38.4,30.38,ESE,108,0.0,0.0,45,0.00,CLR,CLR,0.00,WeatherDisplay:10.36,2013-05-02 14:08:00,
2013-05-02 10:13:00,60.2,38.8,30.38,ESE,108,0.0,0.0,45,0.00,CLR,CLR,0.00,WeatherDisplay:10.36,2013-05-02 14:13:00,
2013-05-02 10:18:00,60.7,37.5,30.38,ESE,108,1.2,0.0,42,0.00,CLR,CLR,0.00,WeatherDisplay:10.36,2013-05-02 14:18:00,
2013-05-02 10:24:00,61.2,37.3,30.38,ESE,108,2.3,0.0,41,0.00,CLR,CLR,0.00,WeatherDisplay:10.36,2013-05-02 14:24:00,
2013-05-02 10:29:00,61.6,37.0,30.38,ESE,108,0.0,0.0,40,0.00,CLR,CLR,0.00,WeatherDisplay:10.36,2013-05-02 14:29:00,
2013-05-02 10:34:00,62.1,36.8,30.38,ESE,108,1.2,0.0,39,0.00,CLR,CLR,0.00,WeatherDisplay:10.36,2013-05-02 14:34:00,
2013-05-02 10:39:00,62.1,37.5,30.38,ESE,108,2.3,2.3,40,0.00,CLR,CLR,0.00,WeatherDisplay:10.36,2013-05-02 14:39:00,
2013-05-02 10:44:00,62.3,37.0,30.38,South,182,2.3,2.3,39,0.00,CLR,CLR,0.00,WeatherDisplay:10.36,2013-05-02 14:44:00,
2013-05-02 10:49:00,62.6,35.3,30.38,South,182,0.0,0.0,36,0.00,CLR,CLR,0.00,WeatherDisplay:10.36,2013-05-02 14:49:00,
2013-05-02 10:54:00,63.4,35.2,30.38,SE,137,2.3,2.3,35,0.00,CLR,CLR,0.00,WeatherDisplay:10.36,2013-05-02 14:54:00,
2013-05-02 10:59:00,64.0,35.0,30.38,South,188,0.0,0.0,34,0.00,CLR,CLR,0.00,WeatherDisplay:10.36,2013-05-02 14:59:00,
2013-05-02 11:04:00,64.5,36.2,30.38,SW,231,2.3,0.0,35,0.00,CLR,CLR,0.00,WeatherDisplay:10.36,2013-05-02 15:04:00,
2013-05-02 11:09:00,64.7,35.7,30.37,SE,141,2.0,2.0,34,0.00,CLR,CLR,0.00,WeatherDisplay:10.36,2013-05-02 15:09:00,
2013-05-02 11:14:00,65.0,35.2,30.37,SE,141,1.2,0.0,33,0.00,CLR,CLR,0.00,WeatherDisplay:10.36,2013-05-02 15:14:00,
2013-05-02 11:19:00,65.2,34.6,30.37,SE,141,0.0,0.0,32,0.00,CLR,CLR,0.00,WeatherDisplay:10.36,2013-05-02 15:19:00,
2013-05-02 11:25:00,65.2,36.8,30.37,SE,129,2.3,2.3,35,0.00,CLR,CLR,0.00,WeatherDisplay:10.36,2013-05-02 15:25:00,
2013-05-02 11:30:00,65.5,35.6,30.37,SE,129,1.2,0.0,33,0.00,CLR,CLR,0.00,WeatherDisplay:10.36,2013-05-02 15:30:00,
2013-05-02 11:35:00,65.8,35.1,30.37,SE,129,0.0,0.0,32,0.00,CLR,CLR,0.00,WeatherDisplay:10.36,2013-05-02 15:35:00,
2013-05-02 11:40:00,66.8,36.8,30.37,SSE,154,2.3,2.3,33,0.00,CLR,CLR,0.00,WeatherDisplay:10.36,2013-05-02 15:40:00,
2013-05-02 11:57:00,67.6,33.3,30.36,South,181,2.3,0.0,28,0.00,CLR,CLR,0.00,WeatherDisplay:10.36,2013-05-02 15:57:00,
2013-05-02 12:02:00,67.8,33.5,30.36,East,100,2.3,2.3,28,0.00,CLR,CLR,0.00,WeatherDisplay:10.36,2013-05-02 16:02:00,
2013-05-02 12:07:00,68.1,34.6,30.35,SSW,201,0.0,0.0,29,0.00,CLR,CLR,0.00,WeatherDisplay:10.36,2013-05-02 16:07:00,
2013-05-02 12:13:00,68.3,34.8,30.35,ESE,103,0.0,0.0,29,0.00,CLR,CLR,0.00,WeatherDisplay:10.36,2013-05-02 16:13:00,
2013-05-02 12:18:00,68.6,35.1,30.35,East,98,2.3,2.3,29,0.00,CLR,CLR,0.00,WeatherDisplay:10.36,2013-05-02 16:18:00,
2013-05-02 12:23:00,68.8,35.2,30.35,SSE,147,3.5,3.5,29,0.00,CLR,CLR,0.00,WeatherDisplay:10.36,2013-05-02 16:23:00,
2013-05-02 12:29:00,69.3,36.5,30.35,SSE,147,0.0,0.0,30,0.00,CLR,CLR,0.00,WeatherDisplay:10.36,2013-05-02 16:29:00,
2013-05-02 12:34:00,69.6,35.0,30.34,SE,136,1.0,0.0,28,0.00,CLR,CLR,0.00,WeatherDisplay:10.36,2013-05-02 16:34:00,
2013-05-02 12:39:00,70.1,34.5,30.34,West,268,6.0,6.0,27,0.00,CLR,CLR,0.00,WeatherDisplay:10.36,2013-05-02 16:39:00,
2013-05-02 12:44:00,70.3,35.6,30.34,SE,134,0.0,0.0,28,0.00,CLR,CLR,0.00,WeatherDisplay:10.36,2013-05-02 16:44:00,
2013-05-02 12:49:00,70.8,36.1,30.34,NNE,13,3.5,3.5,28,0.00,CLR,CLR,0.00,WeatherDisplay:10.36,2013-05-02 16:49:00,
2013-05-02 12:54:00,70.9,36.1,30.34,North,11,1.2,1.2,28,0.00,CLR,CLR,0.00,WeatherDisplay:10.36,2013-05-02 16:54:00,
2013-05-02 12:59:00,71.5,37.6,30.34,North,352,0.0,0.0,29,0.00,CLR,CLR,0.00,WeatherDisplay:10.36,2013-05-02 16:59:00,
2013-05-02 13:04:00,71.8,36.9,30.34,West,280,0.0,0.0,28,0.00,CLR,CLR,0.00,WeatherDisplay:10.36,2013-05-02 17:04:00,
2013-05-02 13:09:00,72.3,37.4,30.33,SSE,158,2.3,0.0,28,0.00,CLR,CLR,0.00,WeatherDisplay:10.36,2013-05-02 17:09:00,
2013-05-02 13:14:00,72.7,37.7,30.33,SE,140,3.5,3.5,28,0.00,CLR,CLR,0.00,WeatherDisplay:10.36,2013-05-02 17:14:00,
2013-05-02 13:19:00,72.8,37.8,30.33,SE,139,0.0,0.0,28,0.00,CLR,CLR,0.00,WeatherDisplay:10.36,2013-05-02 17:19:00,
2013-05-02 13:24:00,72.8,37.8,30.33,SE,139,0.0,0.0,28,0.00,CLR,CLR,0.00,WeatherDisplay:10.36,2013-05-02 17:24:00,
2013-05-02 13:29:00,73.0,38.0,30.33,SSE,147,2.3,2.3,28,0.00,CLR,CLR,0.00,WeatherDisplay:10.36,2013-05-02 17:29:00,
2013-05-02 13:34:00,73.5,38.4,30.32,SSE,147,1.0,1.0,28,0.00,CLR,CLR,0.00,WeatherDisplay:10.36,2013-05-02 17:34:00,
2013-05-02 13:39:00,73.5,38.4,30.32,SSE,158,4.0,4.0,28,0.00,CLR,CLR,0.00,WeatherDisplay:10.36,2013-05-02 17:39:00,
2013-05-02 13:44:00,73.5,36.5,30.32,East,80,2.3,0.0,26,0.00,CLR,CLR,0.00,WeatherDisplay:10.36,2013-05-02 17:44:00,
2013-05-02 13:49:00,73.5,38.4,30.32,East,80,1.0,0.0,28,0.00,CLR,CLR,0.00,WeatherDisplay:10.36,2013-05-02 17:49:00,
2013-05-02 13:55:00,74.2,39.0,30.32,SW,226,3.5,3.5,28,0.00,CLR,CLR,0.00,WeatherDisplay:10.36,2013-05-02 17:55:00,
2013-05-02 14:00:00,74.8,37.6,30.32,South,175,0.0,3.0,26,0.00,CLR,CLR,0.00,WeatherDisplay:10.36,2013-05-02 18:00:00,
2013-05-02 14:05:00,74.7,36.6,30.32,SE,143,1.0,4.0,25,0.00,CLR,CLR,0.00,WeatherDisplay:10.36,2013-05-02 18:05:00,
2013-05-02 14:10:00,73.3,38.2,30.32,East,87,1.0,3.0,28,0.00,CLR,CLR,0.00,WeatherDisplay:10.36,2013-05-02 18:10:00,
2013-05-02 14:15:00,73.7,37.6,30.31,South,185,2.0,2.0,27,0.00,CLR,CLR,0.00,WeatherDisplay:10.36,2013-05-02 18:15:00,
2013-05-02 14:21:00,74.6,36.4,30.31,South,182,1.2,0.0,25,0.00,CLR,CLR,0.00,WeatherDisplay:10.36,2013-05-02 18:21:00,
2013-05-02 14:26:00,75.3,38.0,30.31,East,94,2.0,2.0,26,0.00,CLR,CLR,0.00,WeatherDisplay:10.36,2013-05-02 18:26:00,
2013-05-02 14:31:00,74.9,36.7,30.31,ENE,72,1.2,1.2,25,0.00,CLR,CLR,0.00,WeatherDisplay:10.36,2013-05-02 18:31:00,
2013-05-02 14:36:00,74.9,36.7,30.31,East,94,3.5,3.5,25,0.00,CLR,CLR,0.00,WeatherDisplay:10.36,2013-05-02 18:36:00,
2013-05-02 14:41:00,74.7,35.5,30.31,East,93,1.2,1.2,24,0.00,CLR,CLR,0.00,WeatherDisplay:10.36,2013-05-02 18:41:00,
2013-05-02 14:47:00,74.9,34.6,30.31,East,93,1.2,0.0,23,0.00,CLR,CLR,0.00,WeatherDisplay:10.36,2013-05-02 18:47:00,
2013-05-02 14:52:00,75.4,38.1,30.31,East,93,2.3,2.3,26,0.00,CLR,CLR,0.00,WeatherDisplay:10.36,2013-05-02 18:52:00,
2013-05-02 14:57:00,75.1,34.8,30.31,East,93,0.0,0.2,23,0.00,CLR,CLR,0.00,WeatherDisplay:10.36,2013-05-02 18:57:00,
2013-05-02 15:02:00,75.1,38.8,30.31,SE,129,2.3,2.3,27,0.00,CLR,CLR,0.00,WeatherDisplay:10.36,2013-05-02 19:02:00,
2013-05-02 15:07:00,75.4,37.1,30.30,SE,129,0.0,0.0,25,0.00,CLR,CLR,0.00,WeatherDisplay:10.36,2013-05-02 19:07:00,
2013-05-02 15:12:00,75.1,34.8,30.30,East,93,0.0,0.0,23,0.00,CLR,CLR,0.00,WeatherDisplay:10.36,2013-05-02 19:12:00,
2013-05-02 15:17:00,75.1,36.9,30.30,ENE,74,1.2,0.0,25,0.00,CLR,CLR,0.00,WeatherDisplay:10.36,2013-05-02 19:17:00,
2013-05-02 15:22:00,74.9,35.7,30.30,ENE,74,1.2,1.2,24,0.00,CLR,CLR,0.00,WeatherDisplay:10.36,2013-05-02 19:22:00,
2013-05-02 15:28:00,75.1,34.8,30.29,SE,145,1.2,0.0,23,0.00,CLR,CLR,0.00,WeatherDisplay:10.36,2013-05-02 19:28:00,
2013-05-02 15:33:00,75.4,35.0,30.29,ENE,77,2.3,2.3,23,0.00,CLR,CLR,0.00,WeatherDisplay:10.36,2013-05-02 19:33:00,
2013-05-02 15:38:00,75.8,36.4,30.29,NW,316,2.0,2.0,24,0.00,CLR,CLR,0.00,WeatherDisplay:10.36,2013-05-02 19:38:00,
2013-05-02 15:43:00,75.8,37.5,30.29,NW,323,0.0,0.2,25,0.00,CLR,CLR,0.00,WeatherDisplay:10.36,2013-05-02 19:43:00,
2013-05-02 15:49:00,75.4,36.1,30.29,NE,48,1.2,0.0,24,0.00,CLR,CLR,0.00,WeatherDisplay:10.36,2013-05-02 19:49:00,
2013-05-02 15:54:00,75.1,34.8,30.29,NE,48,0.0,0.0,23,0.00,CLR,CLR,0.00,WeatherDisplay:10.36,2013-05-02 19:54:00,
2013-05-02 15:59:00,75.4,36.1,30.29,NE,48,1.0,0.0,24,0.00,CLR,CLR,0.00,WeatherDisplay:10.36,2013-05-02 19:59:00,
2013-05-02 16:04:00,75.8,40.4,30.28,NE,48,2.3,2.3,28,0.00,CLR,CLR,0.00,WeatherDisplay:10.36,2013-05-02 20:04:00,
2013-05-02 16:09:00,76.0,39.6,30.28,SSW,209,1.0,1.0,27,0.00,CLR,CLR,0.00,WeatherDisplay:10.36,2013-05-02 20:09:00,
2013-05-02 16:15:00,76.1,39.7,30.28,South,171,0.0,0.0,27,0.00,CLR,CLR,0.00,WeatherDisplay:10.36,2013-05-02 20:15:00,
2013-05-02 16:20:00,75.8,38.5,30.28,SSE,147,3.5,0.0,26,0.00,CLR,CLR,0.00,WeatherDisplay:10.36,2013-05-02 20:20:00,
2013-05-02 16:25:00,76.1,38.7,30.28,South,172,0.0,3.0,26,0.00,CLR,CLR,0.00,WeatherDisplay:10.36,2013-05-02 20:25:00,
2013-05-02 16:30:00,76.5,39.0,30.27,SSE,160,1.2,1.2,26,0.00,CLR,CLR,0.00,WeatherDisplay:10.36,2013-05-02 20:30:00,
2013-05-02 16:35:00,76.5,41.0,30.27,SSE,152,0.0,1.0,28,0.00,CLR,CLR,0.00,WeatherDisplay:10.36,2013-05-02 20:35:00,
2013-05-02 16:40:00,76.7,39.2,30.27,SE,144,1.0,4.0,26,0.00,CLR,CLR,0.00,WeatherDisplay:10.36,2013-05-02 20:40:00,
2013-05-02 16:45:00,76.0,37.6,30.27,SSE,147,0.0,0.0,25,0.00,CLR,CLR,0.00,WeatherDisplay:10.36,2013-05-02 20:45:00,
2013-05-02 16:50:00,75.8,38.5,30.27,SSE,147,0.0,0.0,26,0.00,CLR,CLR,0.00,WeatherDisplay:10.36,2013-05-02 20:50:00,
2013-05-02 16:55:00,76.1,39.7,30.27,ESE,108,0.0,0.0,27,0.00,CLR,CLR,0.00,WeatherDisplay:10.36,2013-05-02 20:55:00,
2013-05-02 17:00:00,76.3,39.8,30.26,ESE,108,0.0,0.0,27,0.00,CLR,CLR,0.00,WeatherDisplay:10.36,2013-05-02 21:00:00,
2013-05-02 17:05:00,76.3,39.8,30.26,ESE,108,1.2,0.0,27,0.00,CLR,CLR,0.00,WeatherDisplay:10.36,2013-05-02 21:05:00,
2013-05-02 17:10:00,76.3,38.9,30.26,ESE,108,0.0,0.0,26,0.00,CLR,CLR,0.00,WeatherDisplay:10.36,2013-05-02 21:10:00,
2013-05-02 17:15:00,76.3,38.9,30.26,SSW,193,0.0,0.0,26,0.00,CLR,CLR,0.00,WeatherDisplay:10.36,2013-05-02 21:15:00,
2013-05-02 17:20:00,76.1,38.7,30.26,SSE,165,1.2,0.0,26,0.00,CLR,CLR,0.00,WeatherDisplay:10.36,2013-05-02 21:20:00,
2013-05-02 17:25:00,75.6,38.3,30.26,South,184,3.5,3.5,26,0.00,CLR,CLR,0.00,WeatherDisplay:10.36,2013-05-02 21:25:00,
2013-05-02 17:31:00,75.4,39.1,30.26,SE,135,0.0,0.0,27,0.00,CLR,CLR,0.00,WeatherDisplay:10.36,2013-05-02 21:31:00,
2013-05-02 17:36:00,75.3,39.9,30.26,SE,141,1.0,0.0,28,0.00,CLR,CLR,0.00,WeatherDisplay:10.36,2013-05-02 21:36:00,
2013-05-02 17:41:00,75.1,39.8,30.26,SE,136,2.0,2.0,28,0.00,CLR,CLR,0.00,WeatherDisplay:10.36,2013-05-02 21:41:00,
2013-05-02 17:46:00,74.9,40.5,30.26,SSW,193,1.0,1.0,29,0.00,CLR,CLR,0.00,WeatherDisplay:10.36,2013-05-02 21:46:00,
2013-05-02 17:51:00,74.7,40.3,30.26,SSW,193,1.2,0.0,29,0.00,CLR,CLR,0.00,WeatherDisplay:10.36,2013-05-02 21:51:00,
2013-05-02 17:56:00,74.6,39.3,30.26,South,191,1.0,0.0,28,0.00,CLR,CLR,0.00,WeatherDisplay:10.36,2013-05-02 21:56:00,
2013-05-02 18:01:00,74.0,39.7,30.26,SE,124,1.2,1.2,29,0.00,CLR,CLR,0.00,WeatherDisplay:10.36,2013-05-02 22:01:00,
2013-05-02 18:06:00,73.3,39.1,30.26,SE,125,1.2,0.0,29,0.00,CLR,CLR,0.00,WeatherDisplay:10.36,2013-05-02 22:06:00,
2013-05-02 18:11:00,73.0,38.9,30.26,SE,128,0.0,0.0,29,0.00,CLR,CLR,0.00,WeatherDisplay:10.36,2013-05-02 22:11:00,
2013-05-02 18:17:00,72.5,39.3,30.26,SE,129,1.2,1.2,30,0.00,CLR,CLR,0.00,WeatherDisplay:10.36,2013-05-02 22:17:00,
2013-05-02 18:22:00,72.1,39.8,30.25,SE,129,1.2,0.0,31,0.00,CLR,CLR,0.00,WeatherDisplay:10.36,2013-05-02 22:22:00,
2013-05-02 18:27:00,71.8,40.3,30.25,South,173,2.3,2.3,32,0.00,CLR,CLR,0.00,WeatherDisplay:10.36,2013-05-02 22:27:00,
2013-05-02 18:32:00,71.6,40.2,30.25,South,173,1.2,1.2,32,0.00,CLR,CLR,0.00,WeatherDisplay:10.36,2013-05-02 22:32:00,
2013-05-02 18:37:00,70.9,40.3,30.25,SE,142,2.0,2.0,33,0.00,CLR,CLR,0.00,WeatherDisplay:10.36,2013-05-02 22:37:00,
2013-05-02 18:42:00,70.4,39.9,30.25,SE,143,1.0,0.0,33,0.00,CLR,CLR,0.00,WeatherDisplay:10.36,2013-05-02 22:42:00,
2013-05-02 18:47:00,70.1,38.9,30.25,SE,132,3.5,3.5,32,0.00,CLR,CLR,0.00,WeatherDisplay:10.36,2013-05-02 22:47:00,
2013-05-02 18:53:00,69.9,39.5,30.25,SSE,151,1.2,1.2,33,0.00,CLR,CLR,0.00,WeatherDisplay:10.36,2013-05-02 22:53:00,
2013-05-02 18:58:00,69.6,39.2,30.25,SSE,161,2.3,0.0,33,0.00,CLR,CLR,0.00,WeatherDisplay:10.36,2013-05-02 22:58:00,
2013-05-02 19:03:00,69.3,39.7,30.25,SSE,161,0.0,0.0,34,0.00,CLR,CLR,0.00,WeatherDisplay:10.36,2013-05-02 23:03:00,
2013-05-02 19:08:00,69.1,40.3,30.25,SSE,158,1.2,1.2,35,0.00,CLR,CLR,0.00,WeatherDisplay:10.36,2013-05-02 23:08:00,
2013-05-02 19:13:00,68.9,39.4,30.25,NE,38,2.3,2.3,34,0.00,CLR,CLR,0.00,WeatherDisplay:10.36,2013-05-02 23:13:00,
2013-05-02 19:18:00,68.8,39.3,30.25,South,175,3.0,3.0,34,0.00,CLR,CLR,0.00,WeatherDisplay:10.36,2013-05-02 23:18:00,
2013-05-02 19:23:00,68.4,38.9,30.25,SSE,162,1.2,1.2,34,0.00,CLR,CLR,0.00,WeatherDisplay:10.36,2013-05-02 23:23:00,
2013-05-02 19:29:00,68.3,39.6,30.25,SSE,162,1.2,1.2,35,0.00,CLR,CLR,0.00,WeatherDisplay:10.36,2013-05-02 23:29:00,
2013-05-02 19:34:00,67.9,39.2,30.25,SSE,162,1.2,0.0,35,0.00,CLR,CLR,0.00,WeatherDisplay:10.36,2013-05-02 23:34:00,
2013-05-02 19:39:00,67.6,39.0,30.25,SSE,162,0.0,0.0,35,0.00,CLR,CLR,0.00,WeatherDisplay:10.36,2013-05-02 23:39:00,
2013-05-02 19:45:00,67.3,39.4,30.25,SSE,162,1.2,0.0,36,0.00,CLR,CLR,0.00,WeatherDisplay:10.36,2013-05-02 23:45:00,
2013-05-02 19:51:00,66.8,39.7,30.25,SSE,160,0.0,0.0,37,0.00,CLR,CLR,0.00,WeatherDisplay:10.36,2013-05-02 23:51:00,
2013-05-02 19:57:00,66.4,39.3,30.25,SSE,160,0.0,0.0,37,0.00,CLR,CLR,0.00,WeatherDisplay:10.36,2013-05-02 23:57:00,
2013-05-02 20:02:00,66.3,39.9,30.25,SE,134,1.0,1.0,38,0.00,CLR,CLR,0.00,WeatherDisplay:10.36,2013-05-03 00:02:00,
2013-05-02 20:07:00,66.0,39.0,30.25,SE,134,0.0,0.0,37,0.00,CLR,CLR,0.00,WeatherDisplay:10.36,2013-05-03 00:07:00,
2013-05-02 20:12:00,65.6,39.3,30.25,SE,134,0.0,0.0,38,0.00,CLR,CLR,0.00,WeatherDisplay:10.36,2013-05-03 00:12:00,
2013-05-02 20:17:00,65.5,40.5,30.25,ESE,110,0.0,0.0,40,0.00,CLR,CLR,0.00,WeatherDisplay:10.36,2013-05-03 00:17:00,
2013-05-02 20:22:00,65.0,39.4,30.25,ESE,110,0.0,0.0,39,0.00,CLR,CLR,0.00,WeatherDisplay:10.36,2013-05-03 00:22:00,
2013-05-02 20:27:00,64.8,39.9,30.25,ESE,110,0.0,0.0,40,0.00,CLR,CLR,0.00,WeatherDisplay:10.36,2013-05-03 00:27:00,
2013-05-02 20:32:00,64.5,39.6,30.25,ESE,110,0.0,0.0,40,0.00,CLR,CLR,0.00,WeatherDisplay:10.36,2013-05-03 00:32:00,
2013-05-02 20:37:00,64.2,40.6,30.25,ESE,110,0.0,0.0,42,0.00,CLR,CLR,0.00,WeatherDisplay:10.36,2013-05-03 00:37:00,
2013-05-02 20:42:00,63.9,40.3,30.25,ESE,110,0.0,0.0,42,0.00,CLR,CLR,0.00,WeatherDisplay:10.36,2013-05-03 00:42:00,
2013-05-02 20:47:00,63.7,41.4,30.25,ESE,110,0.0,0.0,44,0.00,CLR,CLR,0.00,WeatherDisplay:10.36,2013-05-03 00:47:00,
2013-05-02 20:52:00,63.4,41.7,30.25,ESE,110,0.0,0.0,45,0.00,CLR,CLR,0.00,WeatherDisplay:10.36,2013-05-03 00:52:00,
2013-05-02 20:57:00,63.1,41.4,30.26,ESE,110,0.0,0.0,45,0.00,CLR,CLR,0.00,WeatherDisplay:10.36,2013-05-03 00:57:00,
2013-05-02 21:03:00,62.7,41.0,30.26,ESE,110,0.0,0.0,45,0.00,CLR,CLR,0.00,WeatherDisplay:10.36,2013-05-03 01:03:00,
2013-05-02 21:08:00,62.6,41.5,30.26,ESE,110,0.0,0.0,46,0.00,CLR,CLR,0.00,WeatherDisplay:10.36,2013-05-03 01:08:00,
2013-05-02 21:13:00,62.3,40.7,30.26,ESE,110,0.0,0.0,45,0.00,CLR,CLR,0.00,WeatherDisplay:10.36,2013-05-03 01:13:00,
2013-05-02 21:18:00,62.0,41.0,30.26,ESE,110,0.0,0.0,46,0.00,CLR,CLR,0.00,WeatherDisplay:10.36,2013-05-03 01:18:00,
2013-05-02 21:23:00,61.8,40.8,30.26,ESE,110,0.0,0.0,46,0.00,CLR,CLR,0.00,WeatherDisplay:10.36,2013-05-03 01:23:00,
2013-05-02 21:28:00,61.6,41.2,30.26,ESE,110,0.0,0.0,47,0.00,CLR,CLR,0.00,WeatherDisplay:10.36,2013-05-03 01:28:00,
2013-05-02 21:33:00,61.5,41.6,30.26,ESE,110,0.0,0.0,48,0.00,CLR,CLR,0.00,WeatherDisplay:10.36,2013-05-03 01:33:00,
2013-05-02 21:38:00,61.2,41.3,30.26,ESE,110,0.0,0.0,48,0.00,CLR,CLR,0.00,WeatherDisplay:10.36,2013-05-03 01:38:00,
2013-05-02 21:43:00,61.0,41.2,30.26,ESE,110,0.0,0.0,48,0.00,CLR,CLR,0.00,WeatherDisplay:10.36,2013-05-03 01:43:00,
2013-05-02 21:48:00,60.7,40.9,30.26,ESE,110,0.0,0.0,48,0.00,CLR,CLR,0.00,WeatherDisplay:10.36,2013-05-03 01:48:00,
2013-05-02 21:53:00,60.5,41.2,30.26,ESE,110,0.0,0.0,49,0.00,CLR,CLR,0.00,WeatherDisplay:10.36,2013-05-03 01:53:00,
2013-05-02 21:58:00,60.2,41.0,30.26,ESE,110,0.0,0.0,49,0.00,CLR,CLR,0.00,WeatherDisplay:10.36,2013-05-03 01:58:00,
2013-05-02 22:04:00,60.1,41.4,30.26,ESE,110,0.0,0.0,50,0.00,CLR,CLR,0.00,WeatherDisplay:10.36,2013-05-03 02:04:00,
2013-05-02 22:09:00,59.8,41.6,30.26,ESE,110,0.0,0.0,51,0.00,CLR,CLR,0.00,WeatherDisplay:10.36,2013-05-03 02:09:00,
2013-05-02 22:14:00,59.5,41.3,30.26,ESE,110,0.0,0.0,51,0.00,CLR,CLR,0.00,WeatherDisplay:10.36,2013-05-03 02:14:00,
2013-05-02 22:19:00,59.2,41.1,30.26,ESE,110,0.0,0.0,51,0.00,CLR,CLR,0.00,WeatherDisplay:10.36,2013-05-03 02:19:00,
2013-05-02 22:24:00,58.9,41.8,30.26,ESE,110,0.0,0.0,53,0.00,CLR,CLR,0.00,WeatherDisplay:10.36,2013-05-03 02:24:00,
2013-05-02 22:29:00,58.6,42.0,30.26,ESE,110,0.0,0.0,54,0.00,CLR,CLR,0.00,WeatherDisplay:10.36,2013-05-03 02:29:00,
2013-05-02 22:34:00,58.4,42.3,30.26,ESE,110,0.0,0.0,55,0.00,CLR,CLR,0.00,WeatherDisplay:10.36,2013-05-03 02:34:00,
2013-05-02 22:39:00,58.0,41.9,30.26,ESE,110,0.0,0.0,55,0.00,CLR,CLR,0.00,WeatherDisplay:10.36,2013-05-03 02:39:00,
2013-05-02 22:45:00,57.8,42.7,30.26,ESE,110,0.0,0.0,57,0.00,CLR,CLR,0.00,WeatherDisplay:10.36,2013-05-03 02:45:00,
2013-05-02 22:50:00,57.6,42.0,30.26,ESE,110,0.0,0.0,56,0.00,CLR,CLR,0.00,WeatherDisplay:10.36,2013-05-03 02:50:00,
2013-05-02 22:55:00,57.3,42.2,30.26,ESE,110,0.0,0.0,57,0.00,CLR,CLR,0.00,WeatherDisplay:10.36,2013-05-03 02:55:00,
2013-05-02 23:00:00,57.3,42.2,30.27,ESE,110,0.0,0.0,57,0.00,CLR,CLR,0.00,WeatherDisplay:10.36,2013-05-03 03:00:00,
2013-05-02 23:05:00,57.3,42.2,30.27,ESE,110,0.0,0.0,57,0.00,CLR,CLR,0.00,WeatherDisplay:10.36,2013-05-03 03:05:00,
2013-05-02 23:10:00,57.3,42.2,30.27,ESE,110,0.0,0.0,57,0.00,CLR,CLR,0.00,WeatherDisplay:10.36,2013-05-03 03:10:00,
2013-05-02 23:15:00,57.3,41.7,30.27,ESE,110,0.0,0.0,56,0.00,CLR,CLR,0.00,WeatherDisplay:10.36,2013-05-03 03:15:00,
2013-05-02 23:20:00,57.5,41.4,30.28,ESE,110,0.0,0.0,55,0.00,CLR,CLR,0.00,WeatherDisplay:10.36,2013-05-03 03:20:00,
2013-05-02 23:25:00,57.5,41.4,30.28,ESE,110,0.0,0.0,55,0.00,CLR,CLR,0.00,WeatherDisplay:10.36,2013-05-03 03:25:00,
2013-05-02 23:30:00,57.5,41.9,30.28,ESE,110,0.0,0.0,56,0.00,CLR,CLR,0.00,WeatherDisplay:10.36,2013-05-03 03:30:00,
2013-05-02 23:35:00,57.5,41.9,30.28,ESE,110,0.0,0.0,56,0.00,CLR,CLR,0.00,WeatherDisplay:10.36,2013-05-03 03:35:00,
2013-05-02 23:41:00,57.3,41.7,30.29,ESE,110,0.0,0.0,56,0.00,CLR,CLR,0.00,WeatherDisplay:10.36,2013-05-03 03:41:00,
2013-05-02 23:46:00,57.2,41.6,30.29,ESE,110,0.0,0.0,56,0.00,CLR,CLR,0.00,WeatherDisplay:10.36,2013-05-03 03:46:00,
2013-05-02 23:51:00,57.0,41.9,30.29,ESE,110,0.0,0.0,57,0.00,CLR,CLR,0.00,WeatherDisplay:10.36,2013-05-03 03:51:00,
2013-05-02 23:56:00,56.7,42.1,30.29,ESE,110,0.0,0.0,58,0.00,CLR,CLR,0.00,WeatherDisplay:10.36,2013-05-03 03:56:00,